Time,TemperatureF,DewpointF,PressureIn,WindDirection,WindDirectionDegrees,WindSpeedMPH,WindSpeedGustMPH,Humidity,HourlyPrecipIn,Conditions,Clouds,dailyrainin,SoftwareType,DateUTC
2013-10-25 00:00:00,58.5,23.8,29.92,NNE,14,1.0,3.0,26,0.00,,,0.00,VWS V14.01,2013-10-25 07:00:00,
2013-10-25 00:05:00,58.0,23.3,29.92,NNE,13,4.0,4.0,26,0.00,,,0.00,VWS V14.01,2013-10-25 07:05:00,
2013-10-25 00:10:00,57.3,22.7,29.92,NNE,13,2.0,4.0,26,0.00,,,0.00,VWS V14.01,2013-10-25 07:10:00,
2013-10-25 00:15:00,57.2,23.5,29.92,NNE,14,2.0,4.0,27,0.00,,,0.00,VWS V14.01,2013-10-25 07:15:00,
2013-10-25 00:20:00,57.5,22.9,29.93,North,11,2.0,4.0,26,0.00,,,0.00,VWS V14.01,2013-10-25 07:20:00,
2013-10-25 00:25:00,57.4,23.7,29.93,North,10,1.0,3.0,27,0.00,,,0.00,VWS V14.01,2013-10-25 07:25:00,
2013-10-25 00:30:00,57.3,23.6,29.93,North,10,0.0,2.0,27,0.00,,,0.00,VWS V14.01,2013-10-25 07:30:00,
2013-10-25 00:35:00,56.6,23.0,29.93,North,10,1.0,2.0,27,0.00,,,0.00,VWS V14.01,2013-10-25 07:35:00,
2013-10-25 00:40:00,55.9,23.3,29.93,North,10,0.0,3.0,28,0.00,,,0.00,VWS V14.01,2013-10-25 07:40:00,
2013-10-25 00:45:00,55.4,22.9,29.93,North,10,1.0,3.0,28,0.00,,,0.00,VWS V14.01,2013-10-25 07:45:00,
2013-10-25 00:50:00,55.3,22.8,29.94,North,10,0.0,3.0,28,0.00,,,0.00,VWS V14.01,2013-10-25 07:50:00,
2013-10-25 00:55:00,55.5,23.0,29.94,North,10,1.0,1.0,28,0.00,,,0.00,VWS V14.01,2013-10-25 07:55:00,
2013-10-25 01:00:00,55.8,23.2,29.94,North,10,1.0,2.0,28,0.00,,,0.00,VWS V14.01,2013-10-25 08:00:00,
2013-10-25 01:05:00,56.5,22.9,29.94,North,10,2.0,3.0,27,0.00,,,0.00,VWS V14.01,2013-10-25 08:05:00,
2013-10-25 01:10:00,56.4,22.9,29.94,North,10,1.0,3.0,27,0.00,,,0.00,VWS V14.01,2013-10-25 08:10:00,
2013-10-25 01:15:00,56.1,23.5,29.94,North,10,1.0,2.0,28,0.00,,,0.00,VWS V14.01,2013-10-25 08:15:00,
2013-10-25 01:20:00,56.3,23.6,29.94,North,10,2.0,2.0,28,0.00,,,0.00,VWS V14.01,2013-10-25 08:20:00,
2013-10-25 01:25:00,57.0,24.2,29.93,North,10,0.0,2.0,28,0.00,,,0.00,VWS V14.01,2013-10-25 08:25:00,
2013-10-25 01:30:00,57.0,23.4,29.93,North,10,0.0,1.0,27,0.00,,,0.00,VWS V14.01,2013-10-25 08:30:00,
2013-10-25 01:35:00,57.3,23.6,29.93,North,10,2.0,3.0,27,0.00,,,0.00,VWS V14.01,2013-10-25 08:35:00,
2013-10-25 01:40:00,57.2,23.5,29.93,North,10,2.0,3.0,27,0.00,,,0.00,VWS V14.01,2013-10-25 08:40:00,
2013-10-25 01:45:00,57.2,23.5,29.93,North,10,2.0,3.0,27,0.00,,,0.00,VWS V14.01,2013-10-25 08:45:00,
2013-10-25 01:50:00,56.9,23.3,29.93,North,10,1.0,3.0,27,0.00,,,0.00,VWS V14.01,2013-10-25 08:50:00,
2013-10-25 01:55:00,56.4,23.7,29.93,North,10,0.0,2.0,28,0.00,,,0.00,VWS V14.01,2013-10-25 08:55:00,
2013-10-25 02:00:00,56.3,23.6,29.93,North,10,2.0,2.0,28,0.00,,,0.00,VWS V14.01,2013-10-25 09:00:00,
2013-10-25 02:05:00,56.4,22.9,29.93,North,10,2.0,3.0,27,0.00,,,0.00,VWS V14.01,2013-10-25 09:05:00,
2013-10-25 02:10:00,56.2,23.5,29.93,North,10,1.0,3.0,28,0.00,,,0.00,VWS V14.01,2013-10-25 09:10:00,
2013-10-25 02:15:00,56.1,23.5,29.93,North,10,1.0,3.0,28,0.00,,,0.00,VWS V14.01,2013-10-25 09:15:00,
2013-10-25 02:20:00,56.2,23.5,29.93,North,10,3.0,3.0,28,0.00,,,0.00,VWS V14.01,2013-10-25 09:20:00,
2013-10-25 02:25:00,56.3,22.8,29.93,North,11,3.0,4.0,27,0.00,,,0.00,VWS V14.01,2013-10-25 09:25:00,
2013-10-25 02:30:00,55.9,22.4,29.93,North,5,1.0,4.0,27,0.00,,,0.00,VWS V14.01,2013-10-25 09:30:00,
2013-10-25 02:35:00,55.4,22.9,29.93,North,5,2.0,3.0,28,0.00,,,0.00,VWS V14.01,2013-10-25 09:35:00,
2013-10-25 02:40:00,55.2,22.7,29.93,North,5,0.0,4.0,28,0.00,,,0.00,VWS V14.01,2013-10-25 09:40:00,
2013-10-25 02:45:00,55.0,23.4,29.93,North,5,1.0,2.0,29,0.00,,,0.00,VWS V14.01,2013-10-25 09:45:00,
2013-10-25 02:50:00,54.9,23.3,29.93,North,5,3.0,3.0,29,0.00,,,0.00,VWS V14.01,2013-10-25 09:50:00,
2013-10-25 02:55:00,54.9,23.3,29.93,North,9,1.0,2.0,29,0.00,,,0.00,VWS V14.01,2013-10-25 09:55:00,
2013-10-25 03:00:00,54.8,23.2,29.93,North,9,0.0,2.0,29,0.00,,,0.00,VWS V14.01,2013-10-25 10:00:00,
2013-10-25 03:05:00,54.7,23.1,29.93,North,9,3.0,3.0,29,0.00,,,0.00,VWS V14.01,2013-10-25 10:05:00,
2013-10-25 03:10:00,55.0,23.4,29.93,NNE,16,3.0,4.0,29,0.00,,,0.00,VWS V14.01,2013-10-25 10:10:00,
2013-10-25 03:15:00,55.0,23.4,29.93,NNE,16,1.0,4.0,29,0.00,,,0.00,VWS V14.01,2013-10-25 10:15:00,
2013-10-25 03:20:00,54.9,23.3,29.93,NNE,16,1.0,3.0,29,0.00,,,0.00,VWS V14.01,2013-10-25 10:20:00,
2013-10-25 03:25:00,55.0,23.4,29.93,NNE,16,2.0,3.0,29,0.00,,,0.00,VWS V14.01,2013-10-25 10:25:00,
2013-10-25 03:30:00,54.9,23.3,29.93,NNE,16,1.0,2.0,29,0.00,,,0.00,VWS V14.01,2013-10-25 10:30:00,
2013-10-25 03:35:00,54.6,23.0,29.93,NNE,16,0.0,2.0,29,0.00,,,0.00,VWS V14.01,2013-10-25 10:35:00,
2013-10-25 03:40:00,54.3,23.5,29.93,NNE,16,0.0,0.0,30,0.00,,,0.00,VWS V14.01,2013-10-25 10:40:00,
2013-10-25 03:45:00,54.1,23.4,29.93,NNE,16,0.0,0.0,30,0.00,,,0.00,VWS V14.01,2013-10-25 10:45:00,
2013-10-25 03:50:00,53.7,23.0,29.93,NNE,16,1.0,1.0,30,0.00,,,0.00,VWS V14.01,2013-10-25 10:50:00,
2013-10-25 03:55:00,54.0,23.3,29.93,NNE,16,2.0,3.0,30,0.00,,,0.00,VWS V14.01,2013-10-25 10:55:00,
2013-10-25 04:00:00,54.5,22.9,29.93,NNE,16,2.0,4.0,29,0.00,,,0.00,VWS V14.01,2013-10-25 11:00:00,
2013-10-25 04:05:00,54.3,22.7,29.93,NNE,17,3.0,3.0,29,0.00,,,0.00,VWS V14.01,2013-10-25 11:05:00,
2013-10-25 04:10:00,54.1,22.6,29.93,NNE,17,0.0,4.0,29,0.00,,,0.00,VWS V14.01,2013-10-25 11:10:00,
2013-10-25 04:15:00,53.3,22.7,29.93,NNE,17,1.0,1.0,30,0.00,,,0.00,VWS V14.01,2013-10-25 11:15:00,
2013-10-25 04:20:00,53.6,22.9,29.93,NNE,17,1.0,3.0,30,0.00,,,0.00,VWS V14.01,2013-10-25 11:20:00,
2013-10-25 04:25:00,54.3,23.5,29.94,NNE,17,2.0,3.0,30,0.00,,,0.00,VWS V14.01,2013-10-25 11:25:00,
2013-10-25 04:30:00,54.4,22.8,29.94,NNE,17,0.0,2.0,29,0.00,,,0.00,VWS V14.01,2013-10-25 11:30:00,
2013-10-25 04:35:00,54.0,22.5,29.94,ENE,59,2.0,6.0,29,0.00,,,0.00,VWS V14.01,2013-10-25 11:35:00,
2013-10-25 04:40:00,53.8,23.1,29.94,NNE,20,4.0,5.0,30,0.00,,,0.00,VWS V14.01,2013-10-25 11:40:00,
2013-10-25 04:45:00,53.6,22.9,29.94,North,5,3.0,4.0,30,0.00,,,0.00,VWS V14.01,2013-10-25 11:45:00,
2013-10-25 04:50:00,54.1,23.4,29.94,North,5,1.0,4.0,30,0.00,,,0.00,VWS V14.01,2013-10-25 11:50:00,
2013-10-25 04:55:00,53.3,22.7,29.94,North,351,2.0,3.0,30,0.00,,,0.00,VWS V14.01,2013-10-25 11:55:00,
2013-10-25 04:56:00,53.1,22.5,29.94,North,351,2.0,2.0,30,0.00,,,0.00,VWS V14.01,2013-10-25 11:56:00,
2013-10-25 05:00:00,52.4,22.7,29.94,North,349,2.0,4.0,31,0.00,,,0.00,VWS V14.01,2013-10-25 12:00:00,
2013-10-25 05:01:00,52.3,22.6,29.94,North,349,1.0,4.0,31,0.00,,,0.00,VWS V14.01,2013-10-25 12:01:00,
2013-10-25 05:05:00,52.0,22.3,29.95,NNW,344,3.0,4.0,31,0.00,,,0.00,VWS V14.01,2013-10-25 12:05:00,
2013-10-25 05:06:00,52.0,22.3,29.95,NNW,336,2.0,5.0,31,0.00,,,0.00,VWS V14.01,2013-10-25 12:06:00,
2013-10-25 05:10:00,51.9,22.2,29.95,NNW,344,3.0,5.0,31,0.00,,,0.00,VWS V14.01,2013-10-25 12:10:00,
2013-10-25 05:11:00,51.9,22.2,29.95,NNW,344,1.0,3.0,31,0.00,,,0.00,VWS V14.01,2013-10-25 12:11:00,
2013-10-25 05:15:00,52.1,22.4,29.95,North,349,3.0,3.0,31,0.00,,,0.00,VWS V14.01,2013-10-25 12:15:00,
2013-10-25 05:16:00,52.2,22.5,29.95,North,350,2.0,3.0,31,0.00,,,0.00,VWS V14.01,2013-10-25 12:16:00,
2013-10-25 05:20:00,52.6,22.9,29.95,North,355,3.0,3.0,31,0.00,,,0.00,VWS V14.01,2013-10-25 12:20:00,
2013-10-25 05:21:00,52.7,22.9,29.95,North,5,3.0,3.0,31,0.00,,,0.00,VWS V14.01,2013-10-25 12:21:00,
2013-10-25 05:25:00,53.2,22.6,29.95,North,360,2.0,4.0,30,0.00,,,0.00,VWS V14.01,2013-10-25 12:25:00,
2013-10-25 05:26:00,53.3,22.7,29.95,North,5,2.0,3.0,30,0.00,,,0.00,VWS V14.01,2013-10-25 12:26:00,
2013-10-25 05:30:00,53.7,23.0,29.95,North,360,2.0,3.0,30,0.00,,,0.00,VWS V14.01,2013-10-25 12:30:00,
2013-10-25 05:31:00,53.8,23.1,29.95,North,360,3.0,3.0,30,0.00,,,0.00,VWS V14.01,2013-10-25 12:31:00,
2013-10-25 05:35:00,54.1,23.4,29.96,North,5,1.0,3.0,30,0.00,,,0.00,VWS V14.01,2013-10-25 12:35:00,
2013-10-25 05:36:00,54.1,22.6,29.96,North,5,1.0,2.0,29,0.00,,,0.00,VWS V14.01,2013-10-25 12:36:00,
2013-10-25 05:40:00,54.4,22.8,29.96,North,5,0.0,2.0,29,0.00,,,0.00,VWS V14.01,2013-10-25 12:40:00,
2013-10-25 05:41:00,54.4,22.8,29.96,North,5,0.0,0.0,29,0.00,,,0.00,VWS V14.01,2013-10-25 12:41:00,
2013-10-25 05:45:00,54.1,23.4,29.96,North,5,1.0,2.0,30,0.00,,,0.00,VWS V14.01,2013-10-25 12:45:00,
2013-10-25 05:46:00,53.9,23.2,29.96,North,5,2.0,3.0,30,0.00,,,0.00,VWS V14.01,2013-10-25 12:46:00,
2013-10-25 05:50:00,53.4,22.8,29.96,North,5,1.0,3.0,30,0.00,,,0.00,VWS V14.01,2013-10-25 12:50:00,
2013-10-25 05:51:00,53.3,22.7,29.96,North,5,1.0,2.0,30,0.00,,,0.00,VWS V14.01,2013-10-25 12:51:00,
2013-10-25 05:55:00,53.0,22.4,29.96,North,5,1.0,2.0,30,0.00,,,0.00,VWS V14.01,2013-10-25 12:55:00,
2013-10-25 05:56:00,53.1,22.5,29.96,North,5,2.0,2.0,30,0.00,,,0.00,VWS V14.01,2013-10-25 12:56:00,
2013-10-25 06:00:00,53.4,22.8,29.96,North,11,3.0,3.0,30,0.00,,,0.00,VWS V14.01,2013-10-25 13:00:00,
2013-10-25 06:01:00,53.5,22.9,29.96,NNE,12,2.0,4.0,30,0.00,,,0.00,VWS V14.01,2013-10-25 13:01:00,
2013-10-25 06:05:00,53.3,22.7,29.96,NNE,13,2.0,4.0,30,0.00,,,0.00,VWS V14.01,2013-10-25 13:05:00,
2013-10-25 06:06:00,53.2,22.6,29.96,NNE,13,1.0,4.0,30,0.00,,,0.00,VWS V14.01,2013-10-25 13:06:00,
2013-10-25 06:10:00,53.2,22.6,29.97,North,10,3.0,4.0,30,0.00,,,0.00,VWS V14.01,2013-10-25 13:10:00,
2013-10-25 06:11:00,53.2,22.6,29.97,North,9,2.0,3.0,30,0.00,,,0.00,VWS V14.01,2013-10-25 13:11:00,
2013-10-25 06:15:00,53.2,22.6,29.96,North,9,1.0,3.0,30,0.00,,,0.00,VWS V14.01,2013-10-25 13:15:00,
2013-10-25 06:16:00,53.2,22.6,29.97,North,9,0.0,1.0,30,0.00,,,0.00,VWS V14.01,2013-10-25 13:16:00,
2013-10-25 06:20:00,53.3,22.7,29.96,North,9,0.0,2.0,30,0.00,,,0.00,VWS V14.01,2013-10-25 13:20:00,
2013-10-25 06:21:00,53.3,22.7,29.96,North,9,0.0,1.0,30,0.00,,,0.00,VWS V14.01,2013-10-25 13:21:00,
2013-10-25 06:25:00,53.5,22.9,29.97,North,9,1.0,3.0,30,0.00,,,0.00,VWS V14.01,2013-10-25 13:25:00,
2013-10-25 06:26:00,53.6,22.9,29.97,North,9,2.0,4.0,30,0.00,,,0.00,VWS V14.01,2013-10-25 13:26:00,
2013-10-25 06:30:00,53.9,23.2,29.97,North,360,3.0,4.0,30,0.00,,,0.00,VWS V14.01,2013-10-25 13:30:00,
2013-10-25 06:31:00,54.0,23.3,29.97,North,351,3.0,3.0,30,0.00,,,0.00,VWS V14.01,2013-10-25 13:31:00,
2013-10-25 06:35:00,54.1,23.4,29.97,North,351,0.0,3.0,30,0.00,,,0.00,VWS V14.01,2013-10-25 13:35:00,
2013-10-25 06:36:00,54.1,23.4,29.97,North,351,0.0,0.0,30,0.00,,,0.00,VWS V14.01,2013-10-25 13:36:00,
2013-10-25 06:40:00,53.8,23.9,29.97,North,351,0.0,0.0,31,0.00,,,0.00,VWS V14.01,2013-10-25 13:40:00,
2013-10-25 06:41:00,53.7,23.8,29.97,North,351,0.0,1.0,31,0.00,,,0.00,VWS V14.01,2013-10-25 13:41:00,
2013-10-25 06:45:00,54.1,23.4,29.97,North,351,1.0,2.0,30,0.00,,,0.00,VWS V14.01,2013-10-25 13:45:00,
2013-10-25 06:46:00,54.2,23.5,29.97,North,351,1.0,1.0,30,0.00,,,0.00,VWS V14.01,2013-10-25 13:46:00,
2013-10-25 06:50:00,54.8,24.0,29.97,North,351,1.0,1.0,30,0.00,,,0.00,VWS V14.01,2013-10-25 13:50:00,
2013-10-25 06:51:00,55.4,24.5,29.97,North,351,1.0,2.0,30,0.00,,,0.00,VWS V14.01,2013-10-25 13:51:00,
2013-10-25 06:55:00,58.3,24.5,29.97,NNE,15,3.0,4.0,27,0.00,,,0.00,VWS V14.01,2013-10-25 13:55:00,
2013-10-25 06:56:00,58.7,23.9,29.98,NNE,15,1.0,3.0,26,0.00,,,0.00,VWS V14.01,2013-10-25 13:56:00,
2013-10-25 07:00:00,59.9,24.0,29.98,North,5,2.0,4.0,25,0.00,,,0.00,VWS V14.01,2013-10-25 14:00:00,
2013-10-25 07:01:00,60.1,24.2,29.98,North,355,3.0,3.0,25,0.00,,,0.00,VWS V14.01,2013-10-25 14:01:00,
2013-10-25 07:05:00,61.0,24.0,29.98,North,360,2.0,4.0,24,0.00,,,0.00,VWS V14.01,2013-10-25 14:05:00,
2013-10-25 07:06:00,61.2,24.1,29.98,North,360,2.0,3.0,24,0.00,,,0.00,VWS V14.01,2013-10-25 14:06:00,
2013-10-25 07:10:00,62.0,24.8,29.98,North,350,3.0,4.0,24,0.00,,,0.00,VWS V14.01,2013-10-25 14:10:00,
2013-10-25 07:15:00,63.1,24.7,29.98,NNW,333,2.0,4.0,23,0.00,,,0.00,VWS V14.01,2013-10-25 14:15:00,
2013-10-25 07:16:00,63.3,24.9,29.98,NNW,333,1.0,2.0,23,0.00,,,0.00,VWS V14.01,2013-10-25 14:16:00,
2013-10-25 07:20:00,64.0,25.5,29.98,NNW,337,2.0,4.0,23,0.00,,,0.00,VWS V14.01,2013-10-25 14:20:00,
2013-10-25 07:21:00,64.3,25.7,29.98,NNW,348,2.0,3.0,23,0.00,,,0.00,VWS V14.01,2013-10-25 14:21:00,
2013-10-25 07:25:00,65.0,25.3,29.98,NNE,17,2.0,4.0,22,0.00,,,0.00,VWS V14.01,2013-10-25 14:25:00,
2013-10-25 07:30:00,65.9,26.0,29.98,NNW,348,3.0,5.0,22,0.00,,,0.00,VWS V14.01,2013-10-25 14:30:00,
2013-10-25 07:31:00,66.2,25.1,29.99,NNW,347,0.0,3.0,21,0.00,,,0.00,VWS V14.01,2013-10-25 14:31:00,
2013-10-25 07:36:00,67.5,26.2,29.99,NNW,346,1.0,2.0,21,0.00,,,0.00,VWS V14.01,2013-10-25 14:36:00,
2013-10-25 07:40:00,68.4,25.8,29.99,NNW,346,0.0,3.0,20,0.00,,,0.00,VWS V14.01,2013-10-25 14:40:00,
2013-10-25 07:41:00,68.6,26.0,29.99,NNW,346,3.0,3.0,20,0.00,,,0.00,VWS V14.01,2013-10-25 14:41:00,
2013-10-25 07:44:00,62.2,25.0,29.98,North,350,3.0,3.0,24,0.00,,,0.00,VWS V14.01,2013-10-25 14:44:00,
2013-10-25 07:45:00,69.0,25.1,29.99,North,5,2.0,4.0,19,0.00,,,0.00,VWS V14.01,2013-10-25 14:45:00,
2013-10-25 07:46:00,69.0,25.1,29.99,North,355,3.0,4.0,19,0.00,,,0.00,VWS V14.01,2013-10-25 14:46:00,
2013-10-25 07:50:00,69.4,25.4,29.99,NNE,22,2.0,4.0,19,0.00,,,0.00,VWS V14.01,2013-10-25 14:50:00,
2013-10-25 07:56:00,70.5,25.0,29.99,NNE,22,1.0,1.0,18,0.00,,,0.00,VWS V14.01,2013-10-25 14:56:00,
2013-10-25 07:59:00,65.2,25.4,29.98,NNW,347,1.0,5.0,22,0.00,,,0.00,VWS V14.01,2013-10-25 14:59:00,
2013-10-25 08:01:00,71.0,26.7,29.99,NNE,22,0.0,0.0,19,0.00,,,0.00,VWS V14.01,2013-10-25 15:01:00,
2013-10-25 08:05:00,71.0,25.4,29.99,East,93,1.0,4.0,18,0.00,,,0.00,VWS V14.01,2013-10-25 15:05:00,
2013-10-25 08:08:00,67.2,26.0,29.99,NNW,346,0.0,3.0,21,0.00,,,0.00,VWS V14.01,2013-10-25 15:08:00,
2013-10-25 08:11:00,71.2,25.6,29.99,East,96,0.0,2.0,18,0.00,,,0.00,VWS V14.01,2013-10-25 15:11:00,
2013-10-25 08:15:00,71.2,25.6,30.00,ESE,119,2.0,4.0,18,0.00,,,0.00,VWS V14.01,2013-10-25 15:15:00,
2013-10-25 08:16:00,71.1,25.5,30.00,ESE,121,2.0,2.0,18,0.00,,,0.00,VWS V14.01,2013-10-25 15:16:00,
2013-10-25 08:24:00,69.5,25.5,29.99,NNE,22,1.0,2.0,19,0.00,,,0.00,VWS V14.01,2013-10-25 15:24:00,
2013-10-25 08:25:00,71.7,26.0,30.00,ESE,122,1.0,2.0,18,0.00,,,0.00,VWS V14.01,2013-10-25 15:25:00,
2013-10-25 08:33:00,70.8,25.2,29.99,NNE,22,0.0,1.0,18,0.00,,,0.00,VWS V14.01,2013-10-25 15:33:00,
2013-10-25 08:35:00,72.5,25.2,30.00,ESE,122,0.0,1.0,17,0.00,,,0.00,VWS V14.01,2013-10-25 15:35:00,
2013-10-25 08:36:00,72.6,26.7,30.00,ESE,122,0.0,1.0,18,0.00,,,0.00,VWS V14.01,2013-10-25 15:36:00,
2013-10-25 08:39:00,71.0,25.4,29.99,East,96,0.0,2.0,18,0.00,,,0.00,VWS V14.01,2013-10-25 15:39:00,
2013-10-25 08:45:00,73.3,25.9,29.99,SE,129,0.0,2.0,17,0.00,,,0.00,VWS V14.01,2013-10-25 15:45:00,
2013-10-25 08:53:00,70.9,25.3,30.00,ESE,122,1.0,2.0,18,0.00,,,0.00,VWS V14.01,2013-10-25 15:53:00,
2013-10-25 08:59:00,71.6,25.9,30.00,ESE,122,0.0,1.0,18,0.00,,,0.00,VWS V14.01,2013-10-25 15:59:00,
2013-10-25 09:00:00,75.8,26.5,29.99,South,186,0.0,4.0,16,0.00,,,0.00,VWS V14.01,2013-10-25 16:00:00,
2013-10-25 09:04:00,72.8,26.9,29.99,ESE,122,0.0,0.0,18,0.00,,,0.00,VWS V14.01,2013-10-25 16:04:00,
2013-10-25 09:06:00,76.0,26.6,29.99,South,186,0.0,1.0,16,0.00,,,0.00,VWS V14.01,2013-10-25 16:06:00,
2013-10-25 09:11:00,76.5,25.5,29.99,South,179,1.0,2.0,15,0.00,,,0.00,VWS V14.01,2013-10-25 16:11:00,
2013-10-25 09:13:00,73.7,27.6,30.00,SE,129,0.0,1.0,18,0.00,,,0.00,VWS V14.01,2013-10-25 16:13:00,
2013-10-25 09:15:00,76.9,25.8,29.99,South,179,0.0,2.0,15,0.00,,,0.00,VWS V14.01,2013-10-25 16:15:00,
2013-10-25 09:19:00,73.5,26.1,30.00,SE,129,0.0,0.0,17,0.00,,,0.00,VWS V14.01,2013-10-25 16:19:00,
2013-10-25 09:21:00,77.5,26.2,29.99,SSW,199,1.0,3.0,15,0.00,,,0.00,VWS V14.01,2013-10-25 16:21:00,
2013-10-25 09:24:00,74.9,27.2,29.99,SE,141,0.0,4.0,17,0.00,,,0.00,VWS V14.01,2013-10-25 16:24:00,
2013-10-25 09:26:00,77.9,26.6,29.99,South,186,1.0,2.0,15,0.00,,,0.00,VWS V14.01,2013-10-25 16:26:00,
2013-10-25 09:29:00,75.8,26.5,29.99,SSE,156,0.0,1.0,16,0.00,,,0.00,VWS V14.01,2013-10-25 16:29:00,
2013-10-25 09:31:00,78.2,26.8,29.99,South,184,1.0,2.0,15,0.00,,,0.00,VWS V14.01,2013-10-25 16:31:00,
2013-10-25 09:34:00,76.0,26.6,29.99,South,186,0.0,1.0,16,0.00,,,0.00,VWS V14.01,2013-10-25 16:34:00,
2013-10-25 09:35:00,78.5,25.4,29.99,South,184,0.0,3.0,14,0.00,,,0.00,VWS V14.01,2013-10-25 16:35:00,
2013-10-25 09:36:00,78.4,25.3,29.99,South,184,0.0,1.0,14,0.00,,,0.00,VWS V14.01,2013-10-25 16:36:00,
2013-10-25 09:40:00,78.6,27.1,29.99,South,173,2.0,5.0,15,0.00,,,0.00,VWS V14.01,2013-10-25 16:40:00,
2013-10-25 09:41:00,78.9,27.4,29.99,South,175,1.0,4.0,15,0.00,,,0.00,VWS V14.01,2013-10-25 16:41:00,
2013-10-25 09:43:00,76.5,27.0,29.99,South,179,2.0,4.0,16,0.00,,,0.00,VWS V14.01,2013-10-25 16:43:00,
2013-10-25 09:46:00,78.5,27.0,29.99,South,186,1.0,4.0,15,0.00,,,0.00,VWS V14.01,2013-10-25 16:46:00,
2013-10-25 09:49:00,76.6,25.5,29.99,South,179,0.0,1.0,15,0.00,,,0.00,VWS V14.01,2013-10-25 16:49:00,
2013-10-25 09:51:00,78.9,28.9,29.99,South,190,4.0,7.0,16,0.00,,,0.00,VWS V14.01,2013-10-25 16:51:00,
2013-10-25 09:56:00,78.9,27.4,29.99,SSW,197,2.0,3.0,15,0.00,,,0.00,VWS V14.01,2013-10-25 16:56:00,
2013-10-25 09:58:00,77.9,24.9,29.99,South,186,0.0,5.0,14,0.00,,,0.00,VWS V14.01,2013-10-25 16:58:00,
2013-10-25 10:00:00,78.2,26.8,29.99,SW,217,3.0,3.0,15,0.00,,,0.00,VWS V14.01,2013-10-25 17:00:00,
2013-10-25 10:01:00,78.4,28.5,29.99,SW,218,3.0,4.0,16,0.00,,,0.00,VWS V14.01,2013-10-25 17:01:00,
2013-10-25 10:03:00,77.9,24.9,29.99,South,183,0.0,2.0,14,0.00,,,0.00,VWS V14.01,2013-10-25 17:03:00,
2013-10-25 10:05:00,78.9,27.4,29.99,SW,222,0.0,6.0,15,0.00,,,0.00,VWS V14.01,2013-10-25 17:05:00,
2013-10-25 10:06:00,79.1,29.1,29.99,SW,221,0.0,2.0,16,0.00,,,0.00,VWS V14.01,2013-10-25 17:06:00,
2013-10-25 10:10:00,79.4,29.3,29.99,SSW,192,3.0,6.0,16,0.00,,,0.00,VWS V14.01,2013-10-25 17:10:00,
2013-10-25 10:11:00,79.6,27.9,29.99,SSW,192,1.0,3.0,15,0.00,,,0.00,VWS V14.01,2013-10-25 17:11:00,
2013-10-25 10:15:00,80.4,26.9,29.99,SW,219,4.0,9.0,14,0.00,,,0.00,VWS V14.01,2013-10-25 17:15:00,
2013-10-25 10:18:00,78.5,25.4,29.99,South,169,2.0,6.0,14,0.00,,,0.00,VWS V14.01,2013-10-25 17:18:00,
2013-10-25 10:20:00,79.6,27.9,29.99,SSW,200,0.0,7.0,15,0.00,,,0.00,VWS V14.01,2013-10-25 17:20:00,
2013-10-25 10:21:00,79.7,28.0,29.99,SSW,198,4.0,5.0,15,0.00,,,0.00,VWS V14.01,2013-10-25 17:21:00,
2013-10-25 10:23:00,79.1,29.1,29.99,SSW,198,3.0,7.0,16,0.00,,,0.00,VWS V14.01,2013-10-25 17:23:00,
2013-10-25 10:25:00,80.0,28.2,29.99,SW,227,3.0,5.0,15,0.00,,,0.00,VWS V14.01,2013-10-25 17:25:00,
2013-10-25 10:28:00,78.9,28.9,29.99,SSW,210,1.0,7.0,16,0.00,,,0.00,VWS V14.01,2013-10-25 17:28:00,
2013-10-25 10:30:00,80.2,28.4,29.99,SW,235,6.0,8.0,15,0.00,,,0.00,VWS V14.01,2013-10-25 17:30:00,
2013-10-25 10:31:00,80.3,28.5,29.99,SW,227,4.0,7.0,15,0.00,,,0.00,VWS V14.01,2013-10-25 17:31:00,
2013-10-25 10:35:00,80.2,28.4,29.99,WSW,238,4.0,8.0,15,0.00,,,0.00,VWS V14.01,2013-10-25 17:35:00,
2013-10-25 10:36:00,80.1,28.3,29.99,SW,236,3.0,5.0,15,0.00,,,0.00,VWS V14.01,2013-10-25 17:36:00,
2013-10-25 10:40:00,80.5,28.6,29.98,SW,215,3.0,11.0,15,0.00,,,0.00,VWS V14.01,2013-10-25 17:40:00,
2013-10-25 10:41:00,80.3,28.5,29.98,SW,219,2.0,7.0,15,0.00,,,0.00,VWS V14.01,2013-10-25 17:41:00,
2013-10-25 10:45:00,79.9,28.2,29.98,SSW,213,5.0,8.0,15,0.00,,,0.00,VWS V14.01,2013-10-25 17:45:00,
2013-10-25 10:49:00,80.1,28.3,29.99,SW,227,3.0,5.0,15,0.00,,,0.00,VWS V14.01,2013-10-25 17:49:00,
2013-10-25 10:50:00,81.0,27.4,29.98,SSW,200,4.0,7.0,14,0.00,,,0.00,VWS V14.01,2013-10-25 17:50:00,
2013-10-25 10:51:00,81.1,27.4,29.98,SW,218,7.0,7.0,14,0.00,,,0.00,VWS V14.01,2013-10-25 17:51:00,
2013-10-25 10:55:00,81.3,27.6,29.98,SW,229,3.0,9.0,14,0.00,,,0.00,VWS V14.01,2013-10-25 17:55:00,
2013-10-25 10:56:00,81.1,27.4,29.98,SW,223,5.0,8.0,14,0.00,,,0.00,VWS V14.01,2013-10-25 17:56:00,
2013-10-25 10:59:00,80.2,28.4,29.99,South,191,3.0,7.0,15,0.00,,,0.00,VWS V14.01,2013-10-25 17:59:00,
2013-10-25 11:00:00,81.2,27.5,29.98,SSW,211,1.0,10.0,14,0.00,,,0.00,VWS V14.01,2013-10-25 18:00:00,
2013-10-25 11:01:00,81.3,27.6,29.98,SSW,213,6.0,6.0,14,0.00,,,0.00,VWS V14.01,2013-10-25 18:01:00,
2013-10-25 11:05:00,82.0,28.1,29.98,SW,221,6.0,8.0,14,0.00,,,0.00,VWS V14.01,2013-10-25 18:05:00,
2013-10-25 11:06:00,81.7,27.9,29.98,SW,215,3.0,8.0,14,0.00,,,0.00,VWS V14.01,2013-10-25 18:06:00,
2013-10-25 11:10:00,82.0,28.1,29.98,SW,215,7.0,8.0,14,0.00,,,0.00,VWS V14.01,2013-10-25 18:10:00,
2013-10-25 11:11:00,82.1,28.2,29.98,SW,225,2.0,7.0,14,0.00,,,0.00,VWS V14.01,2013-10-25 18:11:00,
2013-10-25 11:15:00,82.4,28.5,29.98,SW,220,2.0,7.0,14,0.00,,,0.00,VWS V14.01,2013-10-25 18:15:00,
2013-10-25 11:16:00,82.2,28.3,29.98,WNW,288,1.0,3.0,14,0.00,,,0.00,VWS V14.01,2013-10-25 18:16:00,
2013-10-25 11:19:00,80.1,28.3,29.98,WNW,297,2.0,7.0,15,0.00,,,0.00,VWS V14.01,2013-10-25 18:19:00,
2013-10-25 11:20:00,82.5,28.5,29.97,SW,223,4.0,6.0,14,0.00,,,0.00,VWS V14.01,2013-10-25 18:20:00,
2013-10-25 11:21:00,82.5,28.5,29.97,SW,234,0.0,6.0,14,0.00,,,0.00,VWS V14.01,2013-10-25 18:21:00,
2013-10-25 11:25:00,82.0,28.1,29.97,SW,223,5.0,7.0,14,0.00,,,0.00,VWS V14.01,2013-10-25 18:25:00,
2013-10-25 11:30:00,82.3,28.4,29.96,West,279,2.0,6.0,14,0.00,,,0.00,VWS V14.01,2013-10-25 18:30:00,
2013-10-25 11:31:00,81.7,27.9,29.96,SW,218,6.0,9.0,14,0.00,,,0.00,VWS V14.01,2013-10-25 18:31:00,
2013-10-25 11:35:00,82.4,28.5,29.96,SW,217,0.0,9.0,14,0.00,,,0.00,VWS V14.01,2013-10-25 18:35:00,
2013-10-25 11:36:00,82.4,28.5,29.96,SW,218,1.0,4.0,14,0.00,,,0.00,VWS V14.01,2013-10-25 18:36:00,
2013-10-25 11:40:00,82.5,28.5,29.96,South,187,4.0,7.0,14,0.00,,,0.00,VWS V14.01,2013-10-25 18:40:00,
2013-10-25 11:45:00,82.7,30.4,29.95,SSW,198,2.0,7.0,15,0.00,,,0.00,VWS V14.01,2013-10-25 18:45:00,
2013-10-25 11:46:00,83.1,29.0,29.95,SSW,213,6.0,7.0,14,0.00,,,0.00,VWS V14.01,2013-10-25 18:46:00,
2013-10-25 11:50:00,82.7,28.7,29.95,SW,216,2.0,7.0,14,0.00,,,0.00,VWS V14.01,2013-10-25 18:50:00,
2013-10-25 11:51:00,82.5,28.5,29.95,South,172,8.0,8.0,14,0.00,,,0.00,VWS V14.01,2013-10-25 18:51:00,
2013-10-25 11:55:00,82.3,28.4,29.95,SW,223,3.0,8.0,14,0.00,,,0.00,VWS V14.01,2013-10-25 18:55:00,
2013-10-25 11:56:00,82.5,28.5,29.95,SW,219,6.0,6.0,14,0.00,,,0.00,VWS V14.01,2013-10-25 18:56:00,
2013-10-25 11:59:00,82.2,28.3,29.97,SW,218,4.0,6.0,14,0.00,,,0.00,VWS V14.01,2013-10-25 18:59:00,
2013-10-25 12:00:00,82.6,28.6,29.94,SSE,163,9.0,9.0,14,0.00,,,0.00,VWS V14.01,2013-10-25 19:00:00,
2013-10-25 12:01:00,82.5,28.5,29.94,South,179,8.0,10.0,14,0.00,,,0.00,VWS V14.01,2013-10-25 19:01:00,
2013-10-25 12:05:00,82.4,28.5,29.94,SW,222,2.0,10.0,14,0.00,,,0.00,VWS V14.01,2013-10-25 19:05:00,
2013-10-25 12:06:00,82.9,28.9,29.94,SW,222,4.0,7.0,14,0.00,,,0.00,VWS V14.01,2013-10-25 19:06:00,
2013-10-25 12:10:00,83.7,27.7,29.94,SW,219,4.0,7.0,13,0.00,,,0.00,VWS V14.01,2013-10-25 19:10:00,
2013-10-25 12:11:00,83.6,27.6,29.94,SW,224,6.0,9.0,13,0.00,,,0.00,VWS V14.01,2013-10-25 19:11:00,
2013-10-25 12:14:00,82.8,30.5,29.96,SW,221,3.0,7.0,15,0.00,,,0.00,VWS V14.01,2013-10-25 19:14:00,
2013-10-25 12:15:00,83.1,29.0,29.93,SW,235,3.0,9.0,14,0.00,,,0.00,VWS V14.01,2013-10-25 19:15:00,
2013-10-25 12:16:00,83.3,27.4,29.93,SW,218,3.0,9.0,13,0.00,,,0.00,VWS V14.01,2013-10-25 19:16:00,
2013-10-25 12:20:00,83.4,27.5,29.93,SW,227,1.0,9.0,13,0.00,,,0.00,VWS V14.01,2013-10-25 19:20:00,
2013-10-25 12:21:00,83.6,27.6,29.93,West,276,5.0,6.0,13,0.00,,,0.00,VWS V14.01,2013-10-25 19:21:00,
2013-10-25 12:25:00,82.7,28.7,29.93,WSW,243,3.0,7.0,14,0.00,,,0.00,VWS V14.01,2013-10-25 19:25:00,
2013-10-25 12:26:00,83.0,27.1,29.93,SSW,194,5.0,5.0,13,0.00,,,0.00,VWS V14.01,2013-10-25 19:26:00,
2013-10-25 12:30:00,83.3,29.2,29.93,SSW,204,9.0,11.0,14,0.00,,,0.00,VWS V14.01,2013-10-25 19:30:00,
2013-10-25 12:31:00,83.6,27.6,29.93,SW,234,2.0,9.0,13,0.00,,,0.00,VWS V14.01,2013-10-25 19:31:00,
2013-10-25 12:35:00,83.0,27.1,29.93,WNW,289,0.0,9.0,13,0.00,,,0.00,VWS V14.01,2013-10-25 19:35:00,
2013-10-25 12:36:00,83.0,28.9,29.93,SW,226,6.0,6.0,14,0.00,,,0.00,VWS V14.01,2013-10-25 19:36:00,
2013-10-25 12:40:00,83.5,29.3,29.93,SSW,207,4.0,7.0,14,0.00,,,0.00,VWS V14.01,2013-10-25 19:40:00,
2013-10-25 12:41:00,83.8,29.6,29.93,SW,218,4.0,8.0,14,0.00,,,0.00,VWS V14.01,2013-10-25 19:41:00,
2013-10-25 12:45:00,83.8,27.8,29.93,SW,227,6.0,8.0,13,0.00,,,0.00,VWS V14.01,2013-10-25 19:45:00,
2013-10-25 12:46:00,83.9,27.8,29.93,SW,221,2.0,8.0,13,0.00,,,0.00,VWS V14.01,2013-10-25 19:46:00,
2013-10-25 12:50:00,83.6,27.6,29.93,SW,234,1.0,8.0,13,0.00,,,0.00,VWS V14.01,2013-10-25 19:50:00,
2013-10-25 12:51:00,83.7,27.7,29.93,SW,228,1.0,4.0,13,0.00,,,0.00,VWS V14.01,2013-10-25 19:51:00,
2013-10-25 12:55:00,83.5,29.3,29.92,WSW,250,3.0,10.0,14,0.00,,,0.00,VWS V14.01,2013-10-25 19:55:00,
2013-10-25 12:56:00,83.3,29.2,29.92,WSW,248,3.0,6.0,14,0.00,,,0.00,VWS V14.01,2013-10-25 19:56:00,
2013-10-25 13:00:00,83.9,27.8,29.92,SSW,200,0.0,6.0,13,0.00,,,0.00,VWS V14.01,2013-10-25 20:00:00,
2013-10-25 13:01:00,84.1,28.0,29.92,WSW,251,1.0,4.0,13,0.00,,,0.00,VWS V14.01,2013-10-25 20:01:00,
2013-10-25 13:05:00,83.4,29.3,29.92,SW,225,4.0,8.0,14,0.00,,,0.00,VWS V14.01,2013-10-25 20:05:00,
2013-10-25 13:06:00,83.4,29.3,29.92,South,190,3.0,6.0,14,0.00,,,0.00,VWS V14.01,2013-10-25 20:06:00,
2013-10-25 13:10:00,83.6,29.4,29.92,SSW,209,0.0,12.0,14,0.00,,,0.00,VWS V14.01,2013-10-25 20:10:00,
2013-10-25 13:11:00,83.5,29.3,29.92,SSE,154,4.0,7.0,14,0.00,,,0.00,VWS V14.01,2013-10-25 20:11:00,
2013-10-25 13:15:00,83.6,29.4,29.92,SW,217,2.0,13.0,14,0.00,,,0.00,VWS V14.01,2013-10-25 20:15:00,
2013-10-25 13:16:00,83.9,29.6,29.92,West,259,1.0,3.0,14,0.00,,,0.00,VWS V14.01,2013-10-25 20:16:00,
2013-10-25 13:20:00,83.3,29.2,29.92,West,263,3.0,11.0,14,0.00,,,0.00,VWS V14.01,2013-10-25 20:20:00,
2013-10-25 13:21:00,82.9,28.9,29.92,WNW,299,4.0,7.0,14,0.00,,,0.00,VWS V14.01,2013-10-25 20:21:00,
2013-10-25 13:25:00,82.7,28.7,29.92,NW,309,3.0,10.0,14,0.00,,,0.00,VWS V14.01,2013-10-25 20:25:00,
2013-10-25 13:26:00,82.2,28.3,29.92,WNW,294,4.0,4.0,14,0.00,,,0.00,VWS V14.01,2013-10-25 20:26:00,
2013-10-25 13:30:00,82.9,28.9,29.92,South,182,1.0,7.0,14,0.00,,,0.00,VWS V14.01,2013-10-25 20:30:00,
2013-10-25 13:31:00,83.7,29.5,29.92,WSW,257,2.0,4.0,14,0.00,,,0.00,VWS V14.01,2013-10-25 20:31:00,
2013-10-25 13:35:00,83.7,29.5,29.92,SSW,211,0.0,6.0,14,0.00,,,0.00,VWS V14.01,2013-10-25 20:35:00,
2013-10-25 13:36:00,84.1,29.8,29.92,SW,219,8.0,8.0,14,0.00,,,0.00,VWS V14.01,2013-10-25 20:36:00,
2013-10-25 13:40:00,84.2,29.9,29.92,SSW,213,4.0,9.0,14,0.00,,,0.00,VWS V14.01,2013-10-25 20:40:00,
2013-10-25 13:41:00,84.1,28.0,29.92,West,275,2.0,9.0,13,0.00,,,0.00,VWS V14.01,2013-10-25 20:41:00,
2013-10-25 13:45:00,83.5,29.3,29.92,WSW,246,0.0,9.0,14,0.00,,,0.00,VWS V14.01,2013-10-25 20:45:00,
2013-10-25 13:46:00,83.5,29.3,29.92,SW,221,0.0,6.0,14,0.00,,,0.00,VWS V14.01,2013-10-25 20:46:00,
2013-10-25 13:50:00,83.7,29.5,29.92,SW,223,2.0,9.0,14,0.00,,,0.00,VWS V14.01,2013-10-25 20:50:00,
2013-10-25 13:51:00,83.9,27.8,29.92,SSW,213,5.0,5.0,13,0.00,,,0.00,VWS V14.01,2013-10-25 20:51:00,
2013-10-25 13:55:00,83.7,29.5,29.92,West,277,3.0,5.0,14,0.00,,,0.00,VWS V14.01,2013-10-25 20:55:00,
2013-10-25 13:56:00,83.5,29.3,29.92,West,281,1.0,3.0,14,0.00,,,0.00,VWS V14.01,2013-10-25 20:56:00,
2013-10-25 14:00:00,83.0,28.9,29.92,South,188,2.0,6.0,14,0.00,,,0.00,VWS V14.01,2013-10-25 21:00:00,
2013-10-25 14:01:00,83.1,29.0,29.92,SW,222,7.0,7.0,14,0.00,,,0.00,VWS V14.01,2013-10-25 21:01:00,
2013-10-25 14:05:00,83.4,29.3,29.92,SW,218,6.0,7.0,14,0.00,,,0.00,VWS V14.01,2013-10-25 21:05:00,
2013-10-25 14:06:00,83.5,29.3,29.92,West,261,1.0,6.0,14,0.00,,,0.00,VWS V14.01,2013-10-25 21:06:00,
2013-10-25 14:10:00,82.9,28.9,29.92,WNW,291,1.0,6.0,14,0.00,,,0.00,VWS V14.01,2013-10-25 21:10:00,
2013-10-25 14:11:00,82.7,28.7,29.92,West,276,1.0,4.0,14,0.00,,,0.00,VWS V14.01,2013-10-25 21:11:00,
2013-10-25 14:15:00,82.8,28.8,29.92,SW,223,0.0,6.0,14,0.00,,,0.00,VWS V14.01,2013-10-25 21:15:00,
2013-10-25 14:16:00,83.0,28.9,29.92,SW,223,2.0,6.0,14,0.00,,,0.00,VWS V14.01,2013-10-25 21:16:00,
2013-10-25 14:20:00,83.1,29.0,29.92,West,270,1.0,8.0,14,0.00,,,0.00,VWS V14.01,2013-10-25 21:20:00,
2013-10-25 14:21:00,83.2,29.1,29.92,WSW,244,1.0,4.0,14,0.00,,,0.00,VWS V14.01,2013-10-25 21:21:00,
2013-10-25 14:25:00,83.4,29.3,29.92,West,267,2.0,9.0,14,0.00,,,0.00,VWS V14.01,2013-10-25 21:25:00,
2013-10-25 14:26:00,83.3,29.2,29.92,SSW,210,2.0,8.0,14,0.00,,,0.00,VWS V14.01,2013-10-25 21:26:00,
2013-10-25 14:30:00,83.9,29.6,29.92,SW,232,1.0,8.0,14,0.00,,,0.00,VWS V14.01,2013-10-25 21:30:00,
2013-10-25 14:31:00,83.8,29.6,29.92,WSW,257,2.0,4.0,14,0.00,,,0.00,VWS V14.01,2013-10-25 21:31:00,
2013-10-25 14:35:00,83.5,29.3,29.92,SW,221,0.0,6.0,14,0.00,,,0.00,VWS V14.01,2013-10-25 21:35:00,
2013-10-25 14:36:00,83.1,29.0,29.92,SW,225,0.0,2.0,14,0.00,,,0.00,VWS V14.01,2013-10-25 21:36:00,
2013-10-25 14:40:00,82.5,26.8,29.92,NNW,338,4.0,9.0,13,0.00,,,0.00,VWS V14.01,2013-10-25 21:40:00,
2013-10-25 14:41:00,81.9,28.1,29.92,NNE,12,1.0,7.0,14,0.00,,,0.00,VWS V14.01,2013-10-25 21:41:00,
2013-10-25 14:45:00,81.9,28.1,29.92,NW,304,2.0,7.0,14,0.00,,,0.00,VWS V14.01,2013-10-25 21:45:00,
2013-10-25 14:46:00,82.2,28.3,29.92,NW,325,5.0,6.0,14,0.00,,,0.00,VWS V14.01,2013-10-25 21:46:00,
2013-10-25 14:50:00,81.8,28.0,29.92,NNW,336,0.0,9.0,14,0.00,,,0.00,VWS V14.01,2013-10-25 21:50:00,
2013-10-25 14:51:00,81.7,27.9,29.92,NNW,336,7.0,7.0,14,0.00,,,0.00,VWS V14.01,2013-10-25 21:51:00,
2013-10-25 14:55:00,81.2,27.5,29.92,WNW,300,0.0,7.0,14,0.00,,,0.00,VWS V14.01,2013-10-25 21:55:00,
2013-10-25 14:56:00,81.1,27.4,29.92,NNE,17,1.0,3.0,14,0.00,,,0.00,VWS V14.01,2013-10-25 21:56:00,
2013-10-25 15:00:00,81.6,27.8,29.92,NW,317,2.0,6.0,14,0.00,,,0.00,VWS V14.01,2013-10-25 22:00:00,
2013-10-25 15:01:00,81.9,28.1,29.92,WSW,246,0.0,6.0,14,0.00,,,0.00,VWS V14.01,2013-10-25 22:01:00,
2013-10-25 15:05:00,81.9,28.1,29.92,WNW,298,1.0,6.0,14,0.00,,,0.00,VWS V14.01,2013-10-25 22:05:00,
2013-10-25 15:06:00,82.2,28.3,29.92,WNW,292,0.0,2.0,14,0.00,,,0.00,VWS V14.01,2013-10-25 22:06:00,
2013-10-25 15:10:00,81.7,26.1,29.92,NW,304,4.0,5.0,13,0.00,,,0.00,VWS V14.01,2013-10-25 22:10:00,
2013-10-25 15:11:00,81.7,27.9,29.92,WNW,283,1.0,4.0,14,0.00,,,0.00,VWS V14.01,2013-10-25 22:11:00,
2013-10-25 15:15:00,82.3,26.6,29.92,West,262,0.0,7.0,13,0.00,,,0.00,VWS V14.01,2013-10-25 22:15:00,
2013-10-25 15:16:00,82.2,26.5,29.92,West,280,3.0,5.0,13,0.00,,,0.00,VWS V14.01,2013-10-25 22:16:00,
2013-10-25 15:20:00,82.0,26.4,29.92,West,266,2.0,5.0,13,0.00,,,0.00,VWS V14.01,2013-10-25 22:20:00,
2013-10-25 15:21:00,82.2,26.5,29.92,WNW,284,4.0,8.0,13,0.00,,,0.00,VWS V14.01,2013-10-25 22:21:00,
2013-10-25 15:25:00,82.0,26.4,29.92,WNW,292,6.0,8.0,13,0.00,,,0.00,VWS V14.01,2013-10-25 22:25:00,
2013-10-25 15:26:00,81.8,26.2,29.92,WNW,290,3.0,8.0,13,0.00,,,0.00,VWS V14.01,2013-10-25 22:26:00,
2013-10-25 15:30:00,81.5,27.8,29.92,NW,323,2.0,8.0,14,0.00,,,0.00,VWS V14.01,2013-10-25 22:30:00,
2013-10-25 15:31:00,81.4,27.7,29.92,WNW,282,1.0,7.0,14,0.00,,,0.00,VWS V14.01,2013-10-25 22:31:00,
2013-10-25 15:35:00,81.5,27.8,29.92,NW,313,2.0,7.0,14,0.00,,,0.00,VWS V14.01,2013-10-25 22:35:00,
2013-10-25 15:36:00,81.4,25.9,29.92,NW,312,3.0,8.0,13,0.00,,,0.00,VWS V14.01,2013-10-25 22:36:00,
2013-10-25 15:40:00,81.0,27.4,29.92,NW,313,2.0,8.0,14,0.00,,,0.00,VWS V14.01,2013-10-25 22:40:00,
2013-10-25 15:41:00,81.0,27.4,29.92,NW,311,1.0,8.0,14,0.00,,,0.00,VWS V14.01,2013-10-25 22:41:00,
2013-10-25 15:45:00,80.9,27.3,29.92,WNW,284,5.0,8.0,14,0.00,,,0.00,VWS V14.01,2013-10-25 22:45:00,
2013-10-25 15:46:00,81.1,27.4,29.92,WNW,292,0.0,5.0,14,0.00,,,0.00,VWS V14.01,2013-10-25 22:46:00,
2013-10-25 15:50:00,81.2,27.5,29.92,NW,316,0.0,5.0,14,0.00,,,0.00,VWS V14.01,2013-10-25 22:50:00,
2013-10-25 15:51:00,81.0,27.4,29.92,NW,324,0.0,7.0,14,0.00,,,0.00,VWS V14.01,2013-10-25 22:51:00,
2013-10-25 15:55:00,80.9,27.3,29.92,WNW,284,0.0,7.0,14,0.00,,,0.00,VWS V14.01,2013-10-25 22:55:00,
2013-10-25 15:56:00,80.7,27.1,29.92,West,281,2.0,5.0,14,0.00,,,0.00,VWS V14.01,2013-10-25 22:56:00,
2013-10-25 16:00:00,80.5,27.0,29.92,NNW,327,2.0,5.0,14,0.00,,,0.00,VWS V14.01,2013-10-25 23:00:00,
2013-10-25 16:01:00,80.2,26.7,29.92,NW,321,0.0,6.0,14,0.00,,,0.00,VWS V14.01,2013-10-25 23:01:00,
2013-10-25 16:05:00,80.0,26.6,29.92,NNW,344,2.0,6.0,14,0.00,,,0.00,VWS V14.01,2013-10-25 23:05:00,
2013-10-25 16:06:00,80.0,26.6,29.92,NNW,332,5.0,11.0,14,0.00,,,0.00,VWS V14.01,2013-10-25 23:06:00,
2013-10-25 16:10:00,79.7,26.3,29.92,NW,325,9.0,11.0,14,0.00,,,0.00,VWS V14.01,2013-10-25 23:10:00,
2013-10-25 16:11:00,79.4,27.8,29.92,NNW,338,2.0,9.0,15,0.00,,,0.00,VWS V14.01,2013-10-25 23:11:00,
2013-10-25 16:15:00,79.2,27.6,29.92,NNW,335,5.0,9.0,15,0.00,,,0.00,VWS V14.01,2013-10-25 23:15:00,
2013-10-25 16:16:00,79.1,27.5,29.92,NW,321,5.0,8.0,15,0.00,,,0.00,VWS V14.01,2013-10-25 23:16:00,
2013-10-25 16:20:00,79.0,29.0,29.92,WNW,300,5.0,8.0,16,0.00,,,0.00,VWS V14.01,2013-10-25 23:20:00,
2013-10-25 16:21:00,78.8,28.9,29.92,WNW,290,2.0,7.0,16,0.00,,,0.00,VWS V14.01,2013-10-25 23:21:00,
2013-10-25 16:25:00,78.7,28.8,29.92,NW,321,1.0,7.0,16,0.00,,,0.00,VWS V14.01,2013-10-25 23:25:00,
2013-10-25 16:27:00,78.6,28.7,29.92,NW,310,6.0,7.0,16,0.00,,,0.00,VWS V14.01,2013-10-25 23:27:00,
2013-10-25 16:30:00,78.3,28.5,29.92,NW,317,4.0,8.0,16,0.00,,,0.00,VWS V14.01,2013-10-25 23:30:00,
2013-10-25 16:32:00,78.1,28.3,29.92,NNW,329,7.0,8.0,16,0.00,,,0.00,VWS V14.01,2013-10-25 23:32:00,
2013-10-25 16:35:00,77.9,28.1,29.93,NW,326,5.0,9.0,16,0.00,,,0.00,VWS V14.01,2013-10-25 23:35:00,
2013-10-25 16:37:00,77.8,28.1,29.93,North,355,7.0,7.0,16,0.00,,,0.00,VWS V14.01,2013-10-25 23:37:00,
2013-10-25 16:40:00,77.6,29.4,29.93,NNW,347,6.0,8.0,17,0.00,,,0.00,VWS V14.01,2013-10-25 23:40:00,
2013-10-25 16:42:00,77.4,29.2,29.93,NNW,330,4.0,7.0,17,0.00,,,0.00,VWS V14.01,2013-10-25 23:42:00,
2013-10-25 16:45:00,77.2,29.0,29.93,WNW,301,6.0,7.0,17,0.00,,,0.00,VWS V14.01,2013-10-25 23:45:00,
2013-10-25 16:47:00,77.1,29.0,29.93,NW,311,1.0,6.0,17,0.00,,,0.00,VWS V14.01,2013-10-25 23:47:00,
2013-10-25 16:50:00,76.8,28.7,29.93,NW,315,3.0,6.0,17,0.00,,,0.00,VWS V14.01,2013-10-25 23:50:00,
2013-10-25 16:52:00,76.7,28.6,29.93,NW,319,4.0,6.0,17,0.00,,,0.00,VWS V14.01,2013-10-25 23:52:00,
2013-10-25 16:55:00,76.4,29.8,29.93,NW,308,4.0,6.0,18,0.00,,,0.00,VWS V14.01,2013-10-25 23:55:00,
2013-10-25 16:57:00,76.2,29.6,29.93,NW,321,6.0,7.0,18,0.00,,,0.00,VWS V14.01,2013-10-25 23:57:00,
2013-10-25 17:00:00,76.0,29.5,29.93,NNW,333,2.0,7.0,18,0.00,,,0.00,VWS V14.01,2013-10-26 00:00:00,
2013-10-25 17:02:00,75.8,29.3,29.93,WNW,296,1.0,5.0,18,0.00,,,0.00,VWS V14.01,2013-10-26 00:02:00,
2013-10-25 17:05:00,75.6,29.1,29.94,NW,312,4.0,8.0,18,0.00,,,0.00,VWS V14.01,2013-10-26 00:05:00,
2013-10-25 17:07:00,75.4,29.0,29.94,NW,313,2.0,4.0,18,0.00,,,0.00,VWS V14.01,2013-10-26 00:07:00,
2013-10-25 17:10:00,75.0,28.7,29.94,NW,324,2.0,5.0,18,0.00,,,0.00,VWS V14.01,2013-10-26 00:10:00,
2013-10-25 17:12:00,74.8,28.5,29.94,NW,321,3.0,4.0,18,0.00,,,0.00,VWS V14.01,2013-10-26 00:12:00,
2013-10-25 17:15:00,74.6,28.3,29.94,NW,320,1.0,4.0,18,0.00,,,0.00,VWS V14.01,2013-10-26 00:15:00,
2013-10-25 17:17:00,74.3,29.4,29.94,NW,320,1.0,2.0,19,0.00,,,0.00,VWS V14.01,2013-10-26 00:17:00,
2013-10-25 17:20:00,73.9,29.1,29.94,NW,320,2.0,2.0,19,0.00,,,0.00,VWS V14.01,2013-10-26 00:20:00,
2013-10-25 17:22:00,73.7,28.9,29.94,NW,320,1.0,2.0,19,0.00,,,0.00,VWS V14.01,2013-10-26 00:22:00,
2013-10-25 17:25:00,73.4,28.7,29.94,NW,320,0.0,2.0,19,0.00,,,0.00,VWS V14.01,2013-10-26 00:25:00,
2013-10-25 17:27:00,73.1,28.4,29.94,NW,320,1.0,1.0,19,0.00,,,0.00,VWS V14.01,2013-10-26 00:27:00,
2013-10-25 17:30:00,72.8,28.2,29.94,NW,320,0.0,3.0,19,0.00,,,0.00,VWS V14.01,2013-10-26 00:30:00,
2013-10-25 17:32:00,72.7,28.1,29.95,NW,320,1.0,2.0,19,0.00,,,0.00,VWS V14.01,2013-10-26 00:32:00,
2013-10-25 17:35:00,72.5,27.9,29.95,NW,320,0.0,2.0,19,0.00,,,0.00,VWS V14.01,2013-10-26 00:35:00,
2013-10-25 17:37:00,72.4,27.9,29.95,NW,320,0.0,1.0,19,0.00,,,0.00,VWS V14.01,2013-10-26 00:37:00,
2013-10-25 17:40:00,72.1,28.9,29.95,NW,320,2.0,2.0,20,0.00,,,0.00,VWS V14.01,2013-10-26 00:40:00,
2013-10-25 17:42:00,71.9,28.7,29.95,NW,320,0.0,2.0,20,0.00,,,0.00,VWS V14.01,2013-10-26 00:42:00,
2013-10-25 17:45:00,71.3,28.2,29.95,NW,320,0.0,2.0,20,0.00,,,0.00,VWS V14.01,2013-10-26 00:45:00,
2013-10-25 17:47:00,71.1,28.0,29.95,NW,320,1.0,2.0,20,0.00,,,0.00,VWS V14.01,2013-10-26 00:47:00,
2013-10-25 17:50:00,71.0,28.0,29.95,NW,321,0.0,2.0,20,0.00,,,0.00,VWS V14.01,2013-10-26 00:50:00,
2013-10-25 17:52:00,70.5,27.5,29.96,NW,321,0.0,0.0,20,0.00,,,0.00,VWS V14.01,2013-10-26 00:52:00,
2013-10-25 17:55:00,69.5,27.9,29.96,NW,321,0.0,2.0,21,0.00,,,0.00,VWS V14.01,2013-10-26 00:55:00,
2013-10-25 17:57:00,69.0,27.5,29.96,NW,321,0.0,1.0,21,0.00,,,0.00,VWS V14.01,2013-10-26 00:57:00,
2013-10-25 18:00:00,68.8,28.4,29.96,NW,322,1.0,3.0,22,0.00,,,0.00,VWS V14.01,2013-10-26 01:00:00,
2013-10-25 18:02:00,68.9,28.5,29.96,North,360,2.0,4.0,22,0.00,,,0.00,VWS V14.01,2013-10-26 01:02:00,
2013-10-25 18:05:00,69.1,27.6,29.96,North,360,1.0,4.0,21,0.00,,,0.00,VWS V14.01,2013-10-26 01:05:00,
2013-10-25 18:07:00,69.0,27.5,29.96,North,360,2.0,3.0,21,0.00,,,0.00,VWS V14.01,2013-10-26 01:07:00,
2013-10-25 18:10:00,69.0,27.5,29.96,North,360,2.0,3.0,21,0.00,,,0.00,VWS V14.01,2013-10-26 01:10:00,
2013-10-25 18:12:00,69.0,27.5,29.96,North,360,1.0,4.0,21,0.00,,,0.00,VWS V14.01,2013-10-26 01:12:00,
2013-10-25 18:15:00,69.0,27.5,29.96,North,360,3.0,4.0,21,0.00,,,0.00,VWS V14.01,2013-10-26 01:15:00,
2013-10-25 18:17:00,68.9,28.5,29.96,North,360,3.0,3.0,22,0.00,,,0.00,VWS V14.01,2013-10-26 01:17:00,
2013-10-25 18:20:00,68.9,28.5,29.96,North,349,2.0,4.0,22,0.00,,,0.00,VWS V14.01,2013-10-26 01:20:00,
2013-10-25 18:22:00,69.2,28.8,29.97,North,350,3.0,4.0,22,0.00,,,0.00,VWS V14.01,2013-10-26 01:22:00,
2013-10-25 18:25:00,69.4,27.8,29.96,North,350,3.0,4.0,21,0.00,,,0.00,VWS V14.01,2013-10-26 01:25:00,
2013-10-25 18:27:00,69.0,27.5,29.97,North,360,2.0,3.0,21,0.00,,,0.00,VWS V14.01,2013-10-26 01:27:00,
2013-10-25 18:30:00,68.3,26.9,29.97,NE,35,1.0,4.0,21,0.00,,,0.00,VWS V14.01,2013-10-26 01:30:00,
2013-10-25 18:32:00,67.4,27.3,29.97,NE,40,1.0,2.0,22,0.00,,,0.00,VWS V14.01,2013-10-26 01:32:00,
2013-10-25 18:35:00,66.2,27.3,29.97,ENE,65,3.0,3.0,23,0.00,,,0.00,VWS V14.01,2013-10-26 01:35:00,
2013-10-25 18:37:00,65.8,27.0,29.97,East,79,2.0,5.0,23,0.00,,,0.00,VWS V14.01,2013-10-26 01:37:00,
2013-10-25 18:40:00,65.6,27.9,29.97,ENE,67,2.0,5.0,24,0.00,,,0.00,VWS V14.01,2013-10-26 01:40:00,
2013-10-25 18:42:00,65.5,27.8,29.97,ENE,60,3.0,4.0,24,0.00,,,0.00,VWS V14.01,2013-10-26 01:42:00,
2013-10-25 18:45:00,65.5,27.8,29.97,East,88,2.0,4.0,24,0.00,,,0.00,VWS V14.01,2013-10-26 01:45:00,
2013-10-25 18:47:00,65.4,27.7,29.97,East,88,1.0,3.0,24,0.00,,,0.00,VWS V14.01,2013-10-26 01:47:00,
2013-10-25 18:50:00,65.2,27.5,29.97,East,88,1.0,3.0,24,0.00,,,0.00,VWS V14.01,2013-10-26 01:50:00,
2013-10-25 18:52:00,65.1,27.4,29.97,NE,34,3.0,4.0,24,0.00,,,0.00,VWS V14.01,2013-10-26 01:52:00,
2013-10-25 18:55:00,65.1,27.4,29.97,NNE,19,0.0,4.0,24,0.00,,,0.00,VWS V14.01,2013-10-26 01:55:00,
2013-10-25 18:57:00,65.2,27.5,29.97,NE,55,0.0,4.0,24,0.00,,,0.00,VWS V14.01,2013-10-26 01:57:00,
2013-10-25 19:00:00,65.4,27.7,29.97,NE,45,1.0,4.0,24,0.00,,,0.00,VWS V14.01,2013-10-26 02:00:00,
2013-10-25 19:02:00,65.6,27.9,29.97,NE,46,0.0,3.0,24,0.00,,,0.00,VWS V14.01,2013-10-26 02:02:00,
2013-10-25 19:05:00,65.6,27.9,29.98,NNE,28,3.0,5.0,24,0.00,,,0.00,VWS V14.01,2013-10-26 02:05:00,
2013-10-25 19:07:00,65.6,27.9,29.98,NNE,32,3.0,4.0,24,0.00,,,0.00,VWS V14.01,2013-10-26 02:07:00,
2013-10-25 19:10:00,65.7,28.0,29.98,NE,46,2.0,5.0,24,0.00,,,0.00,VWS V14.01,2013-10-26 02:10:00,
2013-10-25 19:12:00,65.7,28.0,29.98,ENE,59,1.0,3.0,24,0.00,,,0.00,VWS V14.01,2013-10-26 02:12:00,
2013-10-25 19:15:00,65.6,27.9,29.98,NNE,21,3.0,4.0,24,0.00,,,0.00,VWS V14.01,2013-10-26 02:15:00,
2013-10-25 19:17:00,65.3,27.6,29.98,NNE,19,3.0,4.0,24,0.00,,,0.00,VWS V14.01,2013-10-26 02:17:00,
2013-10-25 19:20:00,65.0,27.4,29.98,NNE,27,2.0,4.0,24,0.00,,,0.00,VWS V14.01,2013-10-26 02:20:00,
2013-10-25 19:22:00,65.1,27.4,29.98,NNE,30,4.0,5.0,24,0.00,,,0.00,VWS V14.01,2013-10-26 02:22:00,
2013-10-25 19:25:00,65.5,27.8,29.98,NNE,31,2.0,5.0,24,0.00,,,0.00,VWS V14.01,2013-10-26 02:25:00,
2013-10-25 19:27:00,65.7,28.0,29.98,NNE,15,3.0,4.0,24,0.00,,,0.00,VWS V14.01,2013-10-26 02:27:00,
2013-10-25 19:30:00,65.6,27.9,29.98,NNE,19,1.0,4.0,24,0.00,,,0.00,VWS V14.01,2013-10-26 02:30:00,
2013-10-25 19:32:00,65.6,27.9,29.98,NE,46,3.0,4.0,24,0.00,,,0.00,VWS V14.01,2013-10-26 02:32:00,
2013-10-25 19:35:00,65.4,27.7,29.98,NNE,18,3.0,4.0,24,0.00,,,0.00,VWS V14.01,2013-10-26 02:35:00,
2013-10-25 19:37:00,65.2,27.5,29.98,NNE,18,3.0,3.0,24,0.00,,,0.00,VWS V14.01,2013-10-26 02:37:00,
2013-10-25 19:40:00,64.8,28.2,29.98,NNE,23,0.0,4.0,25,0.00,,,0.00,VWS V14.01,2013-10-26 02:40:00,
2013-10-25 19:42:00,64.7,28.1,29.98,NNE,28,2.0,4.0,25,0.00,,,0.00,VWS V14.01,2013-10-26 02:42:00,
2013-10-25 19:45:00,64.4,27.8,29.99,NNE,27,1.0,4.0,25,0.00,,,0.00,VWS V14.01,2013-10-26 02:45:00,
2013-10-25 19:47:00,64.0,27.5,29.99,NNE,26,3.0,4.0,25,0.00,,,0.00,VWS V14.01,2013-10-26 02:47:00,
2013-10-25 19:50:00,63.8,27.3,29.99,NNE,16,2.0,4.0,25,0.00,,,0.00,VWS V14.01,2013-10-26 02:50:00,
2013-10-25 19:52:00,63.7,27.2,29.99,NNE,14,2.0,4.0,25,0.00,,,0.00,VWS V14.01,2013-10-26 02:52:00,
2013-10-25 19:55:00,63.6,28.1,29.99,NNE,17,0.0,4.0,26,0.00,,,0.00,VWS V14.01,2013-10-26 02:55:00,
2013-10-25 19:57:00,63.5,28.0,29.99,NNE,21,2.0,3.0,26,0.00,,,0.00,VWS V14.01,2013-10-26 02:57:00,
2013-10-25 20:00:00,63.6,28.1,29.99,NNE,25,3.0,3.0,26,0.00,,,0.00,VWS V14.01,2013-10-26 03:00:00,
2013-10-25 20:02:00,63.6,28.1,29.99,North,10,2.0,4.0,26,0.00,,,0.00,VWS V14.01,2013-10-26 03:02:00,
2013-10-25 20:07:00,63.5,28.0,29.99,NNE,23,1.0,4.0,26,0.00,,,0.00,VWS V14.01,2013-10-26 03:07:00,
2013-10-25 20:10:00,63.4,27.9,29.99,North,9,2.0,4.0,26,0.00,,,0.00,VWS V14.01,2013-10-26 03:10:00,
2013-10-25 20:12:00,63.4,27.9,29.99,NNE,15,2.0,4.0,26,0.00,,,0.00,VWS V14.01,2013-10-26 03:12:00,
2013-10-25 20:15:00,63.2,27.8,29.99,North,11,2.0,4.0,26,0.00,,,0.00,VWS V14.01,2013-10-26 03:15:00,
2013-10-25 20:17:00,62.9,27.5,29.99,North,5,3.0,3.0,26,0.00,,,0.00,VWS V14.01,2013-10-26 03:17:00,
2013-10-25 20:22:00,62.4,28.0,29.99,North,9,3.0,4.0,27,0.00,,,0.00,VWS V14.01,2013-10-26 03:22:00,
2013-10-25 20:27:00,62.2,27.8,29.99,North,355,3.0,4.0,27,0.00,,,0.00,VWS V14.01,2013-10-26 03:27:00,
2013-10-25 20:30:00,62.1,27.8,30.00,North,355,3.0,4.0,27,0.00,,,0.00,VWS V14.01,2013-10-26 03:30:00,
2013-10-25 20:32:00,62.2,27.8,30.00,North,355,3.0,4.0,27,0.00,,,0.00,VWS V14.01,2013-10-26 03:32:00,
2013-10-25 20:35:00,62.2,27.8,30.00,North,355,4.0,5.0,27,0.00,,,0.00,VWS V14.01,2013-10-26 03:35:00,
2013-10-25 20:37:00,62.2,27.8,30.00,North,355,1.0,4.0,27,0.00,,,0.00,VWS V14.01,2013-10-26 03:37:00,
2013-10-25 20:38:00,63.5,28.0,29.99,North,11,3.0,4.0,26,0.00,,,0.00,VWS V14.01,2013-10-26 03:38:00,
2013-10-25 20:40:00,62.2,27.8,30.00,North,350,3.0,4.0,27,0.00,,,0.00,VWS V14.01,2013-10-26 03:40:00,
2013-10-25 20:42:00,62.2,27.8,30.00,North,350,1.0,3.0,27,0.00,,,0.00,VWS V14.01,2013-10-26 03:42:00,
2013-10-25 20:45:00,62.0,27.7,30.00,North,350,1.0,3.0,27,0.00,,,0.00,VWS V14.01,2013-10-26 03:45:00,
2013-10-25 20:47:00,61.8,27.5,30.00,North,350,0.0,3.0,27,0.00,,,0.00,VWS V14.01,2013-10-26 03:47:00,
2013-10-25 20:50:00,61.8,27.5,30.00,North,350,0.0,3.0,27,0.00,,,0.00,VWS V14.01,2013-10-26 03:50:00,
2013-10-25 20:52:00,61.6,27.3,30.00,North,350,0.0,1.0,27,0.00,,,0.00,VWS V14.01,2013-10-26 03:52:00,
2013-10-25 20:53:00,62.6,27.3,29.99,North,5,1.0,4.0,26,0.00,,,0.00,VWS V14.01,2013-10-26 03:53:00,
2013-10-25 20:55:00,61.5,28.1,30.00,North,350,0.0,2.0,28,0.00,,,0.00,VWS V14.01,2013-10-26 03:55:00,
2013-10-25 20:57:00,61.4,28.0,30.00,North,350,2.0,2.0,28,0.00,,,0.00,VWS V14.01,2013-10-26 03:57:00,
2013-10-25 20:58:00,62.3,27.9,29.99,North,5,4.0,4.0,27,0.00,,,0.00,VWS V14.01,2013-10-26 03:58:00,
2013-10-25 21:00:00,61.4,28.0,30.00,North,350,0.0,4.0,28,0.00,,,0.00,VWS V14.01,2013-10-26 04:00:00,
2013-10-25 21:02:00,61.5,28.1,30.00,North,350,2.0,4.0,28,0.00,,,0.00,VWS V14.01,2013-10-26 04:02:00,
2013-10-25 21:05:00,61.7,28.3,30.00,North,355,3.0,5.0,28,0.00,,,0.00,VWS V14.01,2013-10-26 04:05:00,
2013-10-25 21:07:00,62.0,28.5,30.00,North,350,1.0,4.0,28,0.00,,,0.00,VWS V14.01,2013-10-26 04:07:00,
2013-10-25 21:10:00,62.0,27.7,30.00,North,350,4.0,4.0,27,0.00,,,0.00,VWS V14.01,2013-10-26 04:10:00,
2013-10-25 21:12:00,62.2,27.8,30.00,North,350,3.0,4.0,27,0.00,,,0.00,VWS V14.01,2013-10-26 04:12:00,
2013-10-25 21:15:00,62.3,27.9,30.00,North,350,2.0,4.0,27,0.00,,,0.00,VWS V14.01,2013-10-26 04:15:00,
2013-10-25 21:17:00,62.3,27.9,30.00,North,360,2.0,4.0,27,0.00,,,0.00,VWS V14.01,2013-10-26 04:17:00,
2013-10-25 21:20:00,62.3,27.9,30.00,North,355,2.0,4.0,27,0.00,,,0.00,VWS V14.01,2013-10-26 04:20:00,
2013-10-25 21:22:00,62.5,28.1,30.00,NNW,348,2.0,4.0,27,0.00,,,0.00,VWS V14.01,2013-10-26 04:22:00,
2013-10-25 21:25:00,62.6,28.2,30.00,North,355,5.0,5.0,27,0.00,,,0.00,VWS V14.01,2013-10-26 04:25:00,
2013-10-25 21:27:00,62.7,28.3,30.00,North,355,2.0,5.0,27,0.00,,,0.00,VWS V14.01,2013-10-26 04:27:00,
2013-10-25 21:30:00,62.8,28.4,30.00,North,360,3.0,5.0,27,0.00,,,0.00,VWS V14.01,2013-10-26 04:30:00,
2013-10-25 21:32:00,62.7,28.3,30.00,North,360,2.0,4.0,27,0.00,,,0.00,VWS V14.01,2013-10-26 04:32:00,
2013-10-25 21:35:00,62.7,28.3,30.00,North,355,1.0,5.0,27,0.00,,,0.00,VWS V14.01,2013-10-26 04:35:00,
2013-10-25 21:37:00,62.5,28.1,30.00,North,355,4.0,4.0,27,0.00,,,0.00,VWS V14.01,2013-10-26 04:37:00,
2013-10-25 21:40:00,62.2,27.8,30.00,North,360,3.0,5.0,27,0.00,,,0.00,VWS V14.01,2013-10-26 04:40:00,
2013-10-25 21:42:00,61.9,27.6,30.00,North,360,0.0,4.0,27,0.00,,,0.00,VWS V14.01,2013-10-26 04:42:00,
2013-10-25 21:45:00,61.6,27.3,30.00,NNW,346,2.0,4.0,27,0.00,,,0.00,VWS V14.01,2013-10-26 04:45:00,
2013-10-25 21:47:00,61.5,27.2,30.00,NNW,346,3.0,3.0,27,0.00,,,0.00,VWS V14.01,2013-10-26 04:47:00,
2013-10-25 21:50:00,61.4,28.0,30.00,NNW,347,2.0,4.0,28,0.00,,,0.00,VWS V14.01,2013-10-26 04:50:00,
2013-10-25 21:52:00,61.3,27.9,30.00,NNW,347,1.0,3.0,28,0.00,,,0.00,VWS V14.01,2013-10-26 04:52:00,
2013-10-25 21:55:00,61.2,27.9,30.00,NNE,13,4.0,4.0,28,0.00,,,0.00,VWS V14.01,2013-10-26 04:55:00,
2013-10-25 21:57:00,61.0,27.7,30.00,NNE,13,3.0,4.0,28,0.00,,,0.00,VWS V14.01,2013-10-26 04:57:00,
2013-10-25 22:00:00,60.7,27.4,30.00,NNE,13,2.0,4.0,28,0.00,,,0.00,VWS V14.01,2013-10-26 05:00:00,
2013-10-25 22:02:00,60.5,27.3,30.00,NNE,13,3.0,3.0,28,0.00,,,0.00,VWS V14.01,2013-10-26 05:02:00,
2013-10-25 22:05:00,60.4,27.2,30.00,NNE,17,3.0,4.0,28,0.00,,,0.00,VWS V14.01,2013-10-26 05:05:00,
2013-10-25 22:07:00,60.3,27.1,30.00,NNE,17,3.0,4.0,28,0.00,,,0.00,VWS V14.01,2013-10-26 05:07:00,
2013-10-25 22:10:00,59.9,26.7,30.00,NNE,19,3.0,4.0,28,0.00,,,0.00,VWS V14.01,2013-10-26 05:10:00,
2013-10-25 22:12:00,59.5,26.4,30.00,NNE,21,3.0,5.0,28,0.00,,,0.00,VWS V14.01,2013-10-26 05:12:00,
2013-10-25 22:15:00,59.2,26.1,30.00,North,11,3.0,5.0,28,0.00,,,0.00,VWS V14.01,2013-10-26 05:15:00,
2013-10-25 22:17:00,59.0,26.8,30.00,NNE,22,3.0,4.0,29,0.00,,,0.00,VWS V14.01,2013-10-26 05:17:00,
2013-10-25 22:20:00,58.9,26.7,30.00,North,11,3.0,5.0,29,0.00,,,0.00,VWS V14.01,2013-10-26 05:20:00,
2013-10-25 22:22:00,58.9,26.7,30.00,NNE,17,2.0,5.0,29,0.00,,,0.00,VWS V14.01,2013-10-26 05:22:00,
2013-10-25 22:25:00,59.0,26.8,30.00,NNE,13,1.0,5.0,29,0.00,,,0.00,VWS V14.01,2013-10-26 05:25:00,
2013-10-25 22:27:00,59.0,26.8,30.00,NNE,16,3.0,4.0,29,0.00,,,0.00,VWS V14.01,2013-10-26 05:27:00,
2013-10-25 22:30:00,58.8,26.6,29.99,NNE,17,2.0,4.0,29,0.00,,,0.00,VWS V14.01,2013-10-26 05:30:00,
2013-10-25 22:32:00,58.5,26.4,30.00,NNE,17,1.0,3.0,29,0.00,,,0.00,VWS V14.01,2013-10-26 05:32:00,
2013-10-25 22:35:00,58.4,26.3,29.99,NNE,28,3.0,4.0,29,0.00,,,0.00,VWS V14.01,2013-10-26 05:35:00,
2013-10-25 22:37:00,58.3,26.2,30.00,North,355,1.0,5.0,29,0.00,,,0.00,VWS V14.01,2013-10-26 05:37:00,
2013-10-25 22:40:00,58.2,26.1,30.00,North,5,4.0,5.0,29,0.00,,,0.00,VWS V14.01,2013-10-26 05:40:00,
2013-10-25 22:42:00,58.0,26.0,29.99,NNE,19,5.0,5.0,29,0.00,,,0.00,VWS V14.01,2013-10-26 05:42:00,
2013-10-25 22:45:00,57.8,25.8,29.99,NNE,17,2.0,5.0,29,0.00,,,0.00,VWS V14.01,2013-10-26 05:45:00,
2013-10-25 22:47:00,57.7,25.7,29.99,North,9,4.0,6.0,29,0.00,,,0.00,VWS V14.01,2013-10-26 05:47:00,
2013-10-25 22:50:00,57.6,26.4,29.99,NNE,31,4.0,6.0,30,0.00,,,0.00,VWS V14.01,2013-10-26 05:50:00,
2013-10-25 22:52:00,57.5,26.3,29.99,NNE,16,5.0,6.0,30,0.00,,,0.00,VWS V14.01,2013-10-26 05:52:00,
2013-10-25 22:55:00,57.5,26.3,30.00,NNW,347,5.0,6.0,30,0.00,,,0.00,VWS V14.01,2013-10-26 05:55:00,
2013-10-25 22:57:00,57.8,26.6,30.00,NNW,347,5.0,6.0,30,0.00,,,0.00,VWS V14.01,2013-10-26 05:57:00,
2013-10-25 23:00:00,58.4,27.1,29.99,North,5,4.0,7.0,30,0.00,,,0.00,VWS V14.01,2013-10-26 06:00:00,
2013-10-25 23:02:00,59.0,26.8,29.99,North,360,3.0,6.0,29,0.00,,,0.00,VWS V14.01,2013-10-26 06:02:00,
2013-10-25 23:05:00,59.3,27.1,29.99,North,355,2.0,6.0,29,0.00,,,0.00,VWS V14.01,2013-10-26 06:05:00,
2013-10-25 23:07:00,59.5,27.2,29.99,North,5,2.0,6.0,29,0.00,,,0.00,VWS V14.01,2013-10-26 06:07:00,
2013-10-25 23:10:00,59.6,27.3,29.99,North,5,2.0,6.0,29,0.00,,,0.00,VWS V14.01,2013-10-26 06:10:00,
2013-10-25 23:12:00,59.8,27.5,29.99,North,9,3.0,4.0,29,0.00,,,0.00,VWS V14.01,2013-10-26 06:12:00,
2013-10-25 23:15:00,60.0,27.7,29.99,North,9,2.0,4.0,29,0.00,,,0.00,VWS V14.01,2013-10-26 06:15:00,
2013-10-25 23:17:00,60.2,27.0,30.00,North,9,1.0,3.0,28,0.00,,,0.00,VWS V14.01,2013-10-26 06:17:00,
2013-10-25 23:20:00,60.3,27.1,30.00,NNE,15,3.0,4.0,28,0.00,,,0.00,VWS V14.01,2013-10-26 06:20:00,
2013-10-25 23:22:00,59.9,26.7,30.00,NNE,19,7.0,7.0,28,0.00,,,0.00,VWS V14.01,2013-10-26 06:22:00,
2013-10-25 23:25:00,59.6,26.5,30.00,NNW,331,6.0,7.0,28,0.00,,,0.00,VWS V14.01,2013-10-26 06:25:00,
2013-10-25 23:27:00,59.6,27.3,30.00,NNW,344,4.0,6.0,29,0.00,,,0.00,VWS V14.01,2013-10-26 06:27:00,
2013-10-25 23:30:00,59.9,27.6,30.00,NNW,332,2.0,6.0,29,0.00,,,0.00,VWS V14.01,2013-10-26 06:30:00,
2013-10-25 23:32:00,60.3,27.1,30.00,NNW,333,4.0,5.0,28,0.00,,,0.00,VWS V14.01,2013-10-26 06:32:00,
2013-10-25 23:35:00,60.6,27.3,30.00,NNW,334,5.0,6.0,28,0.00,,,0.00,VWS V14.01,2013-10-26 06:35:00,
2013-10-25 23:37:00,61.0,27.7,30.00,NNW,336,5.0,7.0,28,0.00,,,0.00,VWS V14.01,2013-10-26 06:37:00,
2013-10-25 23:40:00,61.3,27.9,30.00,NNW,340,4.0,7.0,28,0.00,,,0.00,VWS V14.01,2013-10-26 06:40:00,
2013-10-25 23:42:00,61.7,27.4,30.00,NNE,15,4.0,7.0,27,0.00,,,0.00,VWS V14.01,2013-10-26 06:42:00,
2013-10-25 23:45:00,61.8,27.5,30.00,North,351,5.0,7.0,27,0.00,,,0.00,VWS V14.01,2013-10-26 06:45:00,
2013-10-25 23:47:00,62.0,27.7,30.00,North,355,4.0,7.0,27,0.00,,,0.00,VWS V14.01,2013-10-26 06:47:00,
2013-10-25 23:50:00,62.3,27.9,30.00,North,355,6.0,7.0,27,0.00,,,0.00,VWS V14.01,2013-10-26 06:50:00,
2013-10-25 23:52:00,62.6,27.3,30.00,North,5,6.0,7.0,26,0.00,,,0.00,VWS V14.01,2013-10-26 06:52:00,
2013-10-25 23:55:00,62.8,27.4,30.00,North,355,4.0,7.0,26,0.00,,,0.00,VWS V14.01,2013-10-26 06:55:00,
2013-10-25 23:57:00,62.8,27.4,30.00,North,360,3.0,6.0,26,0.00,,,0.00,VWS V14.01,2013-10-26 06:57:00,